timestamp,wind_dir_avg,wind_spd_avg,wind_spd_max_dir,wind_spd_gust,battery_voltage,lat,long
2022-12-29 00:04:00+00:00,316.0,7.18,315.0,10.4,12.41,47.59359,-54.27349
2022-12-29 00:14:00+00:00,313.0,6.28,307.0,9.02,12.41,47.59359,-54.27349
2022-12-29 00:24:00+00:00,298.0,7.84,306.0,8.79,12.41,47.59359,-54.27349
2022-12-29 00:34:00+00:00,288.0,9.71,283.0,13.64,12.41,47.59359,-54.27349
2022-12-29 00:44:00+00:00,282.0,7.68,279.0,9.3,12.41,47.59359,-54.27349
2022-12-29 00:54:00+00:00,295.0,8.69,298.0,10.86,12.41,47.59359,-54.27349
2022-12-29 01:04:00+00:00,290.0,6.83,286.0,11.11,12.41,47.59359,-54.27349
2022-12-29 01:14:00+00:00,310.0,3.66,302.0,6.98,12.33,47.59359,-54.27349
2022-12-29 01:24:00+00:00,286.0,6.67,283.0,12.19,12.33,47.59359,-54.27349
2022-12-29 01:34:00+00:00,294.0,4.69,289.0,8.11,12.33,47.59359,-54.27349
2022-12-29 01:44:00+00:00,295.0,8.66,287.0,13.15,12.33,47.59359,-54.27349
2022-12-29 01:54:00+00:00,281.0,7.75,280.0,9.23,12.33,47.59359,-54.27349
2022-12-29 02:04:00+00:00,281.0,7.48,287.0,9.07,12.33,47.59359,-54.27349
2022-12-29 02:14:00+00:00,303.0,5.63,285.0,10.4,12.33,47.59359,-54.27349
2022-12-29 02:24:00+00:00,313.0,4.33,304.0,6.23,12.33,47.59359,-54.27349
2022-12-29 02:34:00+00:00,293.0,4.45,286.0,7.92,12.33,47.59359,-54.27349
2022-12-29 02:44:00+00:00,301.0,3.63,288.0,7.58,12.33,47.59359,-54.27349
2022-12-29 02:54:00+00:00,309.0,5.39,313.0,6.77,12.33,47.59359,-54.27349
2022-12-29 03:04:00+00:00,316.0,4.4,299.0,8.47,12.33,47.59359,-54.27349
2022-12-29 03:14:01+00:00,302.0,5.32,298.0,7.99,12.25,47.59359,-54.27349
2022-12-29 03:24:01+00:00,311.0,4.48,307.0,5.98,12.25,47.59359,-54.27349
2022-12-29 03:34:01+00:00,294.0,4.82,301.0,5.69,12.25,47.59359,-54.27349
2022-12-29 03:44:01+00:00,322.0,3.95,309.0,5.65,12.25,47.59359,-54.27349
2022-12-29 03:54:01+00:00,296.0,4.23,290.0,7.86,12.25,47.59359,-54.27349
2022-12-29 04:04:01+00:00,310.0,4.2,290.0,6.29,12.25,47.59359,-54.27349
2022-12-29 04:14:00+00:00,306.0,3.86,295.0,6.41,12.25,47.59359,-54.27349
2022-12-29 04:24:00+00:00,304.0,4.39,296.0,5.38,12.25,47.59359,-54.27349
2022-12-29 04:34:00+00:00,287.0,3.53,294.0,5.43,12.25,47.59359,-54.27349
2022-12-29 04:44:00+00:00,278.0,3.35,272.0,4.94,12.25,47.59359,-54.27349
2022-12-29 04:54:00+00:00,279.0,3.93,274.0,5.82,12.25,47.59359,-54.27349
2022-12-29 05:04:00+00:00,316.0,3.74,305.0,5.78,12.25,47.59359,-54.27349
2022-12-29 05:14:00+00:00,271.0,6.73,277.0,7.83,12.25,47.59359,-54.27349
2022-12-29 05:24:00+00:00,272.0,6.41,275.0,8.21,12.25,47.59359,-54.27349
2022-12-29 05:34:00+00:00,273.0,4.75,271.0,7.88,12.25,47.59359,-54.27349
2022-12-29 05:44:00+00:00,280.0,7.51,274.0,12.21,12.25,47.59359,-54.27349
2022-12-29 05:54:00+00:00,279.0,6.41,272.0,8.42,12.25,47.59359,-54.27349
2022-12-29 06:04:00+00:00,302.0,3.82,294.0,8.16,12.25,47.59359,-54.27349
2022-12-29 06:14:00+00:00,303.0,4.57,311.0,5.99,12.25,47.59359,-54.27349
2022-12-29 06:24:00+00:00,293.0,7.5,293.0,9.05,12.25,47.59359,-54.27349
2022-12-29 06:34:00+00:00,281.0,8.37,283.0,12.57,12.25,47.59359,-54.27349
2022-12-29 06:44:00+00:00,281.0,7.14,276.0,8.38,12.25,47.59359,-54.27349
2022-12-29 06:54:00+00:00,272.0,8.85,277.0,12.78,12.25,47.59359,-54.27349
2022-12-29 07:04:00+00:00,283.0,7.91,282.0,13.2,12.25,47.59359,-54.27349
2022-12-29 07:14:00+00:00,301.0,4.42,289.0,7.92,12.25,47.59359,-54.27349
2022-12-29 07:24:00+00:00,303.0,5.59,291.0,10.95,12.25,47.59359,-54.27349
2022-12-29 07:34:00+00:00,291.0,8.37,289.0,14.41,12.25,47.59359,-54.27349
2022-12-29 07:44:00+00:00,286.0,12.06,288.0,15.33,12.25,47.59359,-54.27349
2022-12-29 07:54:00+00:00,294.0,10.17,295.0,15.03,12.25,47.59359,-54.27349
2022-12-29 08:04:00+00:00,293.0,12.27,291.0,14.78,12.25,47.59359,-54.27349
2022-12-29 08:14:01+00:00,295.0,13.52,297.0,15.48,12.25,47.59359,-54.27349
2022-12-29 08:24:01+00:00,304.0,10.57,300.0,15.18,12.25,47.59359,-54.27349
2022-12-29 08:34:01+00:00,296.0,12.14,295.0,15.71,12.25,47.59359,-54.27349
2022-12-29 08:44:01+00:00,300.0,9.24,290.0,13.23,12.25,47.59359,-54.27349
2022-12-29 08:54:01+00:00,279.0,12.88,280.0,14.7,12.25,47.59359,-54.27349
2022-12-29 09:04:01+00:00,296.0,6.94,275.0,13.9,12.25,47.59359,-54.27349
2022-12-29 09:14:01+00:00,294.0,8.21,288.0,9.9,12.25,47.59359,-54.27349
2022-12-29 09:24:01+00:00,290.0,6.25,287.0,9.18,12.25,47.59359,-54.27349
2022-12-29 09:34:01+00:00,274.0,7.94,273.0,9.69,12.25,47.59359,-54.27349
2022-12-29 09:44:01+00:00,292.0,8.17,279.0,12.67,12.25,47.59359,-54.27349
2022-12-29 09:54:01+00:00,284.0,9.49,278.0,14.39,12.25,47.59359,-54.27349
2022-12-29 10:04:01+00:00,285.0,11.05,282.0,15.66,12.25,47.59359,-54.27349
2022-12-29 10:14:00+00:00,286.0,12.94,294.0,15.41,12.17,47.59359,-54.27349
2022-12-29 10:24:00+00:00,286.0,13.05,296.0,14.99,12.17,47.59359,-54.27349
2022-12-29 10:34:00+00:00,287.0,13.36,288.0,14.8,12.17,47.59359,-54.27349
2022-12-29 10:44:00+00:00,285.0,12.74,293.0,15.18,12.17,47.59359,-54.27349
2022-12-29 10:54:00+00:00,297.0,11.77,291.0,14.66,12.17,47.59359,-54.27349
2022-12-29 11:04:00+00:00,296.0,11.75,293.0,14.55,12.17,47.59359,-54.27349
2022-12-29 11:14:00+00:00,292.0,11.76,289.0,15.4,12.17,47.59359,-54.27349
2022-12-29 11:24:00+00:00,298.0,11.47,288.0,14.68,12.17,47.59359,-54.27349
2022-12-29 11:34:00+00:00,297.0,13.72,305.0,15.29,12.17,47.59359,-54.27349
2022-12-29 11:44:00+00:00,290.0,13.33,295.0,15.5,12.17,47.59359,-54.27349
2022-12-29 11:54:00+00:00,301.0,15.22,301.0,17.72,12.17,47.59359,-54.27349
2022-12-29 12:04:00+00:00,302.0,14.8,300.0,16.26,12.17,47.59359,-54.27349
2022-12-29 12:14:00+00:00,309.0,12.56,308.0,15.43,12.41,47.59359,-54.27349
2022-12-29 12:24:00+00:00,304.0,11.46,292.0,14.83,12.41,47.59359,-54.27349
2022-12-29 12:34:00+00:00,303.0,11.44,303.0,14.18,12.41,47.59359,-54.27349
2022-12-29 12:44:00+00:00,313.0,10.41,316.0,13.48,12.41,47.59359,-54.27349
2022-12-29 12:54:00+00:00,308.0,13.04,308.0,15.66,12.41,47.59359,-54.27349
2022-12-29 13:04:00+00:00,314.0,9.39,309.0,11.82,12.41,47.59359,-54.27349
2022-12-29 14:14:00+00:00,307.0,15.38,311.0,18.18,13.44,47.59359,-54.27349
2022-12-29 14:24:00+00:00,305.0,15.82,307.0,19.66,13.44,47.59359,-54.27349
2022-12-29 14:34:00+00:00,309.0,14.38,306.0,17.12,13.44,47.59359,-54.27349
2022-12-29 14:44:00+00:00,308.0,14.63,306.0,17.37,13.44,47.59359,-54.27349
2022-12-29 14:54:00+00:00,304.0,11.73,298.0,14.77,13.44,47.59359,-54.27349
2022-12-29 15:04:00+00:00,307.0,11.86,305.0,16.51,13.44,47.59359,-54.27349
2022-12-29 15:14:00+00:00,327.0,12.37,332.0,14.86,14.56,47.59359,-54.27349
2022-12-29 15:24:00+00:00,321.0,12.16,330.0,14.35,14.56,47.59359,-54.27349
2022-12-29 15:34:00+00:00,309.0,11.45,307.0,14.75,14.56,47.59359,-54.27349
2022-12-29 15:44:00+00:00,323.0,13.69,325.0,15.87,14.56,47.59359,-54.27349
2022-12-29 15:54:00+00:00,321.0,11.58,325.0,14.62,14.56,47.59359,-54.27349
2022-12-29 16:04:00+00:00,327.0,10.82,328.0,12.31,14.56,47.59359,-54.27349
2022-12-29 16:14:01+00:00,311.0,10.88,304.0,12.39,13.6,47.59359,-54.27349
2022-12-29 16:24:01+00:00,313.0,12.23,306.0,15.8,13.6,47.59359,-54.27349
2022-12-29 16:34:01+00:00,313.0,10.48,302.0,14.84,13.6,47.59359,-54.27349
2022-12-29 16:44:01+00:00,308.0,11.69,304.0,14.68,13.6,47.59359,-54.27349
2022-12-29 16:54:01+00:00,312.0,10.95,308.0,13.77,13.6,47.59359,-54.27349
2022-12-29 17:04:01+00:00,323.0,12.27,324.0,14.12,13.6,47.59359,-54.27349
2022-12-29 17:14:01+00:00,307.0,9.88,308.0,12.61,14.4,47.59359,-54.27349
2022-12-29 17:24:01+00:00,311.0,12.8,307.0,16.36,14.4,47.59359,-54.27349
2022-12-29 17:34:01+00:00,331.0,12.43,330.0,14.95,14.4,47.59359,-54.27349
2022-12-29 17:44:01+00:00,336.0,11.92,331.0,15.22,14.4,47.59359,-54.27349
2022-12-29 17:54:01+00:00,331.0,11.19,331.0,14.18,14.4,47.59359,-54.27349
2022-12-29 18:04:01+00:00,335.0,10.77,339.0,14.08,14.4,47.59359,-54.27349
2022-12-29 18:14:01+00:00,324.0,10.53,322.0,12.82,13.68,47.59359,-54.27349
2022-12-29 18:24:01+00:00,331.0,9.62,328.0,11.13,13.68,47.59359,-54.27349
2022-12-29 18:34:01+00:00,334.0,10.11,327.0,13.48,13.68,47.59359,-54.27349
2022-12-29 18:44:01+00:00,325.0,11.72,323.0,13.35,13.68,47.59359,-54.27349
2022-12-29 18:54:01+00:00,333.0,12.98,335.0,14.66,13.68,47.59359,-54.27349
2022-12-29 19:04:01+00:00,331.0,11.53,326.0,13.14,13.68,47.59359,-54.27349
2022-12-29 19:14:01+00:00,344.0,10.65,338.0,11.77,13.84,47.59359,-54.27349
2022-12-29 19:24:01+00:00,334.0,11.12,339.0,13.42,13.84,47.59359,-54.27349
2022-12-29 19:34:01+00:00,335.0,10.63,334.0,11.92,13.84,47.59359,-54.27349
2022-12-29 19:44:01+00:00,330.0,10.03,328.0,11.58,13.84,47.59359,-54.27349
2022-12-29 19:54:01+00:00,328.0,10.08,321.0,11.55,13.84,47.59359,-54.27349
2022-12-29 20:04:01+00:00,331.0,7.95,331.0,9.52,13.84,47.59359,-54.27349
2022-12-29 21:14:00+00:00,316.0,6.03,307.0,8.98,12.41,47.59359,-54.27349
2022-12-29 21:24:00+00:00,308.0,4.69,308.0,6.32,12.41,47.59359,-54.27349
2022-12-29 21:34:00+00:00,322.0,5.05,315.0,6.53,12.41,47.59359,-54.27349
2022-12-29 21:44:00+00:00,309.0,5.3,307.0,8.66,12.41,47.59359,-54.27349
2022-12-29 21:54:00+00:00,300.0,7.34,297.0,8.83,12.41,47.59359,-54.27349
2022-12-29 22:04:00+00:00,300.0,7.78,303.0,9.26,12.41,47.59359,-54.27349
2022-12-29 22:14:00+00:00,295.0,8.86,294.0,11.33,12.41,47.59359,-54.27349
2022-12-29 22:24:00+00:00,297.0,6.57,288.0,9.07,12.41,47.59359,-54.27349
2022-12-29 22:34:00+00:00,301.0,5.8,303.0,8.25,12.41,47.59359,-54.27349
2022-12-29 22:44:00+00:00,293.0,7.13,288.0,9.36,12.41,47.59359,-54.27349
2022-12-29 22:54:00+00:00,297.0,8.64,294.0,10.12,12.41,47.59359,-54.27349
2022-12-29 23:04:00+00:00,306.0,9.04,300.0,12.55,12.41,47.59359,-54.27349
2022-12-29 23:14:01+00:00,301.0,5.34,293.0,7.91,12.33,47.59359,-54.27349
2022-12-29 23:24:01+00:00,312.0,6.45,304.0,8.95,12.33,47.59359,-54.27349
2022-12-29 23:34:01+00:00,308.0,8.62,308.0,10.23,12.33,47.59359,-54.27349
2022-12-29 23:44:01+00:00,306.0,7.62,302.0,8.98,12.33,47.59359,-54.27349
2022-12-29 23:54:01+00:00,307.0,7.65,306.0,8.92,12.33,47.59359,-54.27349
